| time (UTC) | temp F | wind direction | speed knots | gust knots | rain 1hr in | rain 24hr in | rain mn in | humidity % | barometer mb |
| 20260506014526 | 64 | 5.2 | 9.6 | 0.00 | 0.00 | 0.00 | 63 | 1017.1 | |
| 20260506013015 | 63 | 4.3 | 10.4 | 0.00 | 0.00 | 0.00 | 64 | 1017.3 | |
| 20260506011516 | 63 | 2.6 | 7.0 | 0.00 | 0.00 | 0.00 | 65 | 1017.5 | |
| 20260506010013 | 62 | 5.2 | 8.7 | 0.00 | 0.00 | 0.00 | 65 | 1017.7 | |
| 20260506004515 | 62 | 3.5 | 8.7 | 0.00 | 0.00 | 0.00 | 67 | 1017.7 | |
| 20260506003003 | 61 | 4.3 | 11.3 | 0.00 | 0.00 | 0.00 | 68 | 1018.0 | |
| 20260506001501 | 60 | 4.3 | 12.2 | 0.00 | 0.00 | 0.00 | 69 | 1018.3 | |
| 20260506000058 | 59 | 4.3 | 8.7 | 0.00 | 0.00 | 0.00 | 70 | 1018.5 | |
| 20260505234622 | 59 | 4.3 | 8.7 | 0.00 | 0.00 | 0.00 | 70 | 1018.7 | |
| 20260505233051 | 58 | 3.5 | 7.0 | 0.00 | 0.00 | 0.00 | 72 | 1018.9 | |
| 20260505231547 | 58 | 1.7 | 6.1 | 0.00 | 0.00 | 0.00 | 74 | 1019.0 | |
| 20260505230045 | 56 | 1.7 | 5.2 | 0.00 | 0.00 | 0.00 | 76 | 1019.2 | |
| 20260505224541 | 55 | 0.0 | 1.7 | 0.00 | 0.00 | 0.00 | 80 | 1019.3 | |
| 20260505223036 | 54 | 0.0 | 1.7 | 0.00 | 0.00 | 0.00 | 81 | 1019.3 | |
| 20260505221534 | 53 | 0.0 | 1.7 | 0.00 | 0.00 | 0.00 | 81 | 1019.3 | |
| 20260505220043 | 53 | 0.9 | 3.5 | 0.00 | 0.00 | 0.00 | 82 | 1019.3 | |
| 20260505214536 | 52 | 0.0 | 2.6 | 0.00 | 0.00 | 0.00 | 83 | 1019.3 | |
| 20260505213026 | 52 | 0.0 | 1.7 | 0.00 | 0.00 | 0.00 | 83 | 1019.3 | |
| 20260505211525 | 52 | 0.0 | 0.9 | 0.00 | 0.00 | 0.00 | 83 | 1019.3 | |
| 20260505210023 | 52 | 0.0 | 1.7 | 0.00 | 0.00 | 0.00 | 84 | 1019.4 | |
| 20260505204523 | 51 | 0.0 | 1.7 | 0.00 | 0.00 | 0.00 | 84 | 1019.5 | |
| 20260505203019 | 51 | 0.0 | 1.7 | 0.00 | 0.00 | 0.00 | 85 | 1019.6 | |
| 20260505201522 | 51 | 0.0 | 2.6 | 0.00 | 0.00 | 0.00 | 85 | 1019.6 | |
| 20260505200012 | 51 | 0.0 | 1.7 | 0.00 | 0.00 | 0.00 | 85 | 1019.6 | |
| 20260505194524 | 51 | 0.0 | 0.9 | 0.00 | 0.00 | 0.00 | 86 | 1019.6 | |
| 20260505193024 | 50 | 0.0 | 1.7 | 0.00 | 0.00 | 0.00 | 87 | 1019.4 | |
| 20260505191506 | 50 | 0.0 | 0.9 | 0.00 | 0.00 | 0.00 | 88 | 1019.4 | |
| 20260505190004 | 50 | 0.0 | 1.7 | 0.00 | 0.00 | 0.00 | 89 | 1019.5 | |
| 20260505184506 | 50 | 0.0 | 0.0 | 0.00 | 0.00 | 0.00 | 90 | 1019.5 | |
| 20260505183002 | 50 | 0.0 | 0.0 | 0.00 | 0.00 | 0.00 | 90 | 1019.5 | |
| 20260505181502 | 50 | 0.0 | 0.0 | 0.00 | 0.00 | 0.00 | 89 | 1019.6 | |
| 20260505180003 | 50 | 0.0 | 0.9 | 0.00 | 0.00 | 0.00 | 89 | 1019.6 | |
| 20260505174613 | 50 | 0.0 | 2.6 | 0.00 | 0.00 | 0.00 | 90 | 1019.7 | |
| 20260505173057 | 50 | 0.0 | 1.7 | 0.00 | 0.00 | 0.00 | 91 | 1019.8 | |
| 20260505171556 | 49 | 0.9 | 2.6 | 0.00 | 0.00 | 0.00 | 91 | 1019.9 | |
| 20260505170134 | 49 | 0.9 | 1.7 | 0.00 | 0.00 | 0.00 | 92 | 1020.0 | |
| 20260505164553 | 48 | 0.0 | 1.7 | 0.00 | 0.00 | 0.00 | 93 | 1020.1 | |
| 20260505163052 | 47 | 0.0 | 0.0 | 0.00 | 0.00 | 0.00 | 93 | 1020.2 | |
| 20260505161557 | 47 | 0.0 | 0.0 | 0.00 | 0.00 | 0.00 | 92 | 1020.3 | |
| 20260505153053 | 49 | 0.0 | 0.0 | 0.00 | 0.00 | 0.00 | 90 | 1020.6 | |
| 20260505151545 | 50 | 0.0 | 0.0 | 0.00 | 0.00 | 0.00 | 89 | 1020.7 | |
| 20260505124514 | 52 | 0.0 | 0.0 | 0.00 | 0.00 | 0.00 | 86 | 1021.6 | |
| 20260505123009 | 54 | 0.0 | 0.0 | 0.00 | 0.00 | 0.00 | 85 | 1021.6 | |
| 20260505121510 | 54 | 0.0 | 0.0 | 0.00 | 0.00 | 0.00 | 85 | 1021.6 | |
| 20260505120008 | 54 | 0.0 | 0.9 | 0.00 | 0.00 | 0.00 | 84 | 1021.7 | |
| 20260505114507 | 55 | 0.0 | 0.0 | 0.00 | 0.00 | 0.00 | 84 | 1021.7 | |
| 20260505113006 | 55 | 0.0 | 0.9 | 0.00 | 0.00 | 0.00 | 83 | 1021.7 | |
| 20260505111507 | 55 | 0.0 | 0.9 | 0.00 | 0.00 | 0.00 | 83 | 1021.8 | |
| 20260505101504 | 56 | 0.0 | 0.0 | 0.00 | 0.00 | 0.00 | 81 | 1021.7 | |
| 20260505100003 | 56 | 0.0 | 0.0 | 0.00 | 0.00 | 0.00 | 80 | 1021.7 | |
| 20260505094502 | 56 | 0.0 | 0.0 | 0.00 | 0.00 | 0.00 | 80 | 1021.7 | |
| 20260505093002 | 56 | 0.0 | 0.9 | 0.00 | 0.00 | 0.00 | 79 | 1021.7 | |
| 20260505091600 | 56 | 0.0 | 1.7 | 0.00 | 0.00 | 0.00 | 79 | 1021.7 | |
| 20260505090101 | 57 | 0.0 | 0.0 | 0.00 | 0.00 | 0.00 | 79 | 1021.6 | |
| 20260505084557 | 57 | 0.0 | 0.9 | 0.00 | 0.00 | 0.00 | 78 | 1021.4 | |
| 20260505083105 | 57 | 0.0 | 0.9 | 0.00 | 0.00 | 0.00 | 78 | 1021.1 | |
| 20260505081556 | 57 | 0.0 | 0.9 | 0.00 | 0.00 | 0.00 | 78 | 1021.0 | |
| 20260505080054 | 57 | 0.0 | 0.9 | 0.00 | 0.00 | 0.00 | 77 | 1020.9 | |
| 20260505074550 | 57 | 0.0 | 0.9 | 0.00 | 0.00 | 0.00 | 77 | 1020.8 | |
| 20260505073048 | 58 | 0.0 | 0.9 | 0.00 | 0.00 | 0.00 | 75 | 1020.5 | |
| 20260505071546 | 59 | 0.0 | 3.5 | 0.00 | 0.00 | 0.00 | 76 | 1020.4 | |
| 20260505070050 | 59 | 0.9 | 2.6 | 0.00 | 0.00 | 0.00 | 74 | 1020.3 | |
| 20260505064556 | 59 | 0.0 | 1.7 | 0.00 | 0.00 | 0.00 | 73 | 1020.0 | |
| 20260505063049 | 59 | 0.0 | 1.7 | 0.00 | 0.00 | 0.00 | 73 | 1019.9 | |
| 20260505061543 | 59 | 0.0 | 3.5 | 0.00 | 0.00 | 0.00 | 73 | 1019.9 | |
| 20260505060039 | 60 | 0.9 | 3.5 | 0.00 | 0.00 | 0.00 | 73 | 1019.8 | |
| 20260505054538 | 60 | 0.0 | 4.3 | 0.00 | 0.00 | 0.00 | 75 | 1019.7 | |
| 20260505053035 | 60 | 0.9 | 2.6 | 0.00 | 0.00 | 0.00 | 76 | 1019.5 | |
| 20260505051535 | 60 | 0.9 | 4.3 | 0.00 | 0.00 | 0.00 | 77 | 1019.4 | |
| 20260505041535 | 58 | 0.0 | 1.7 | 0.00 | 0.00 | 0.00 | 77 | 1019.1 | |
| 20260505040031 | 58 | 0.9 | 3.5 | 0.00 | 0.00 | 0.00 | 78 | 1019.0 | |
| 20260505034534 | 58 | 1.7 | 7.0 | 0.00 | 0.00 | 0.00 | 77 | 1019.1 | |
| 20260505033032 | 59 | 0.0 | 3.5 | 0.00 | 0.00 | 0.00 | 76 | 1019.1 | |
| 20260505031528 | 59 | 2.6 | 6.1 | 0.00 | 0.00 | 0.00 | 75 | 1019.0 | |
| 20260505030027 | 59 | 0.9 | 2.6 | 0.00 | 0.00 | 0.00 | 74 | 1019.0 | |
| 20260505024538 | 59 | 0.9 | 2.6 | 0.00 | 0.00 | 0.00 | 73 | 1019.2 | |
| 20260505023025 | 60 | 0.9 | 5.2 | 0.00 | 0.00 | 0.00 | 72 | 1019.2 | |
| 20260505021525 | 60 | 0.9 | 5.2 | 0.00 | 0.00 | 0.00 | 70 | 1019.2 | |
| 20260505020024 | 60 | 0.9 | 5.2 | 0.00 | 0.00 | 0.00 | 70 | 1019.4 |